Find Gonets-M No. 27L

NORAD ID: 46486 Int'l Des: 2020-068 Owner: GONETS Country: RU operational
LEOCIRCULARPOLAR

Live Position

Loading 3D Globe...

About Gonets-M No. 27L

Description loading...

Upcoming Passes

Passes for default location (London). Set your location on the main map for personalized predictions.

Altitude History

Loading altitude history...

Two-Line Element Set

1 46486U 20068A 26107.27238291 -.00000008 00000-0 -12981-3 0 9998
2 46486 82.5033 25.3918 0022267 165.4901 194.6822 12.42870503251590
Epoch: Apr 17, 2026 • Age: 11 hours

Current Status

Altitude 1511.8 km
Velocity 7.11 km/s
Sub-Earth Point -57.71°S, 109.11°E
Launch Date Sep 28, 2020
Age 5.5 years
Type other

Technical Details

Classification Payload
Mass 225.00 kg
Dry Mass 225.00 kg
Total Mass 225.00 kg
Length 1.60 m
Diameter 0.80 m
Span 7.00 m
Shape Cyl + Ant
Manufacturer RESH
Bus Type Strela-3M
Phase Status In Orbit
Owner/State GONETS/RU

Most Searched